Regional Weather Roundup
Issued by NWS

Home | Current Version | Previous Version | Text Only | Print | Product List | Glossary Off
Versions: 1 2 3 4 5 6 7 8 9 10 11 12 13 14 15 16 17 18 19 20 21 22 23 24 25 26 27 28 29 30 31 32 33 34 35 36 37 38 39 40 41 42 43 44 45 46 47 48 49 50

000
ASUS43 KLOT 242110
RWRIL

ILLINOIS REGIONAL WEATHER ROUNDUP
NATIONAL WEATHER SERVICE CHICAGO/ROMEOVILLE IL
400 PM CDT THU APR 24 2014

NOTE: "FAIR" INDICATES FEW OR NO CLOUDS BELOW 12,000 FEET WITH NO
SIGNIFICANT WEATHER AND/OR OBSTRUCTIONS TO VISIBILITY.

* THESE STATIONS ARE NOT UNDER NWS QUALITY CONTROL. THEY ALSO MAY NOT
  REPORT WEATHER SUCH AS PRECIPITATION OR FOG.

ILZ001-002-007-009-015-016-024-242200-
NORTHWEST ILLINOIS

CITY           SKY/WX    TMP DP  RH WIND       PRES   REMARKS
MOLINE         CLOUDY    60  49  66 S10G21    29.64F
STERLING*      CLOUDY    59  48  67 CALM      29.69F
SAVANNA*       CLOUDY    55  48  75 SE9       29.68F
$$

ILZ003-004-008-010-011-017-018-242200-
NORTH CENTRAL ILLINOIS

CITY           SKY/WX    TMP DP  RH WIND       PRES   REMARKS
ROCKFORD       CLOUDY    63  42  46 SE16G22   29.73F
FREEPORT*      LGT RAIN  51  47  87 SE7       29.72F
ROCHELLE*      CLOUDY    66  36  32 S22G28    29.71F
DE KALB*       CLOUDY    64  36  35 S23G32    29.75F
PERU*          CLOUDY    69  38  32 S14G20    29.70F
$$

ILZ005-006-012>014-019>023-242200-
NORTHEAST ILLINOIS

CITY           SKY/WX    TMP DP  RH WIND       PRES   REMARKS
CHICAGO-OHARE  CLOUDY    63  30  28 SE25G32   29.77F
CHICAGO-MIDWAY CLOUDY    63  31  30 SE21G31   29.78F
AURORA         PTSUNNY   65  36  34 SE21G30   29.75F
LANSING*       CLOUDY    62  29  28 SE17G24   29.82F
JOLIET*        PTSUNNY   64  33  31 SE14G28   29.76F
WAUKEGAN       CLOUDY    55  30  38 SE15G25   29.79F
DUPAGE AIRPORT PTSUNNY   64  32  30 SE24G33   29.74F
KANKAKEE*      PTSUNNY   66  37  35 SE18G28   29.77F
WHEELING       CLOUDY    63  31  30 SE21G37   29.78F
MORRIS*        PTSUNNY   67  28  23 SE20G32   29.72F
ROMEOVILLE*    PTSUNNY   64  32  31 SE23G33   29.74F
NORTHERLY ISL    N/A     57  39  51 SE14        N/A
$$

LMZ740>746-242200-
SOUTHERN LAKE MICHIGAN

STATION/POSITION SKY/WX   TEMP    WIND        PRES    VSBY  WAVE
                          AIR SEA DIR/SP/G                  HT/PER
                          (F)     (DEG/KT/KT) (MB)    (MI)  (FT/S)
WAUKEGAN HARBOR            47     140/ 16/ 19 1010.5S
HARRISON CRIB              53     150/ 21/ 24   N/A
BURNHAM HARBOR             55     130/ 13/ 17   N/A
CALUMET HARBOR             61     140/ 18/ 28 1010.8F
MICHIGAN CITY              60     110/ 17/ 25   N/A
$$

ILZ025>027-034>036-040-047-049-050-058-095>099-242200-
WEST-CENTRAL ILLINOIS

CITY           SKY/WX    TMP DP  RH WIND       PRES   REMARKS
QUINCY         CLOUDY    67  49  52 E9        29.60F
GALESBURG*     RAIN      58  52  80 SE7       29.65F
MACOMB*        CLOUDY    65  48  53 E8        29.65F
JACKSONVILLE*  CLOUDY    74  44  33 SE14      29.64F
PITTSFIELD*    CLOUDY    76  42  30 SE15      29.62F
$$

ILZ028>032-037-038-041>044-048-051>054-059>061-242200-
CENTRAL ILLINOIS

CITY           SKY/WX    TMP DP  RH WIND       PRES   REMARKS
PONTIAC        PTSUNNY   73  36  25 SE23      29.71F
BLOOMINGTON    PTSUNNY   70  38  31 S25       29.70F
DECATUR        CLOUDY    73  41  31 S24G30    29.70F
PEORIA         CLOUDY    72  45  37 S6        29.66F
LACON*         CLOUDY    70  43  38 SE6       29.67F
LINCOLN*       CLOUDY    75  40  28 S18G29    29.65F
SPRINGFIELD    CLOUDY    73  42  32 SE16G23   29.66F
TAYLORVILLE    CLOUDY    72  43  35 S18G29    29.67F
$$

ILZ033-039-045-046-055>057-062-063-242200-
EAST-CENTRAL ILLINOIS

CITY           SKY/WX    TMP DP  RH WIND       PRES   REMARKS
CHAMPAIGN      PTSUNNY   73  37  27 SE22      29.73F
RANTOUL*       PTSUNNY   73  32  22 S23       29.76F
MATTOON        CLOUDY    70  39  32 S21G28    29.74F
PARIS*         PTSUNNY   71  38  30 SE20      29.79F
$$

ILZ079-100>102-242200-
SOUTHWEST ILLINOIS

CITY           SKY/WX    TMP DP  RH WIND       PRES   REMARKS
ALTON          PTSUNNY   75  46  35 S17G23    29.64F
BELLEVILLE     PTSUNNY   78  49  35 S21G30    29.64F
CAHOKIA*       PTSUNNY   78  48  34 S17G28    29.62F
SPARTA*        PTSUNNY   73  46  38 S12G24    29.68F
$$

ILZ064>066-069>071-074>076-080>082-084>086-088>090-092>094-242200-
SOUTH-CENTRAL ILLINOIS

CITY           SKY/WX    TMP DP  RH WIND       PRES   REMARKS
CARBONDALE     CLOUDY    75  47  36 S15G24    29.70F
CAIRO*         PTSUNNY   81  47  30 S17G28    29.72F HX  80
MARION         PTSUNNY   79  46  31 S17       29.74F
MT. VERNON     MOSUNNY   75  45  33 SE14G23   29.73F
CENTRALIA*     MOSUNNY   77  43  29 SE16G22   29.69F
SALEM*         MOSUNNY   78  45  31 S16G24    29.70F
METROPOLIS*    PTSUNNY   78  40  25 S10G17    29.75F
$$

ILZ067-068-072-073-078-083-087-091-242200-
SOUTHEAST ILLINOIS

CITY           SKY/WX    TMP DP  RH WIND       PRES   REMARKS
FLORA*         MOSUNNY   75  40  28 S18G25    29.75F
FAIRFIELD*     MOSUNNY   77  43  29 S15G24    29.74F
HARRISBURG*    MOSUNNY   76  44  31 S13G20    29.75F
ROBINSON*      MOSUNNY   75  43  31 SE18G24   29.79F
CARMI*         MOSUNNY   78  43  29 SE16G30   29.76F
$$

ABBREVIATIONS USED IN REMARKS
   TC - TEMPERATURE IN CELSIUS
  WCI - WIND CHILL INDEX
   HX - HEAT INDEX
  VSB - VISIBILITY
$$




USA.gov is the U.S. government's official web portal to all federal, state and local government web resources and services.